Theta_e
319 325 324 325 335 338 339 338 340 340 339 339 337 341 350 351 360 373 356 347 348 355 356 351 345 344 345 347 349 344 342 343 336 333 334 335 338 338 337 342 346 344 341 339 338 330 325 326 326
321 322 323 329 336 339 338 338 341 339 337 334 340 346 348 360 357 355 352 346 350 355 355 354 344 342 344 345 347 345 345 344 335 333 334 335 337 336 336 340 345 344 338 329 328 327 328 328 330
320 322 326 332 337 339 338 337 340 339 336 336 341 349 351 358 355 355 350 348 352 353 352 354 342 341 344 346 347 347 347 344 336 334 336 336 336 335 336 338 342 339 331 323 326 329 330 333 333
321 323 326 333 337 338 338 338 338 338 336 336 339 349 354 351 350 351 348 348 350 350 351 349 340 341 342 345 348 347 347 344 338 337 339 337 336 334 336 338 336 332 331 322 327 332 333 333 337
320 325 331 336 336 337 337 339 339 338 337 334 339 347 357 354 352 349 347 348 349 349 353 348 339 340 341 344 346 347 347 345 343 343 342 338 335 334 335 334 333 335 330 326 330 334 333 334 336
323 326 332 335 337 337 338 338 339 337 336 334 340 344 355 355 352 350 347 347 348 350 354 349 339 339 339 339 343 345 345 345 345 344 342 337 334 335 334 333 334 333 327 324 328 333 333 333 332
323 328 332 335 337 338 338 337 338 337 336 334 336 342 357 356 352 351 349 348 349 350 352 349 346 342 338 337 337 339 340 341 341 341 336 334 333 335 335 332 334 332 327 324 326 327 330 331 332
323 326 331 334 337 337 338 336 336 335 336 334 339 344 358 357 353 352 350 348 350 349 351 349 346 345 344 342 335 334 332 332 332 332 332 333 334 336 333 334 334 332 326 323 322 324 326 328 329
323 325 331 332 334 336 336 335 333 331 330 332 335 345 356 357 354 353 351 350 350 348 350 347 346 345 345 344 342 334 332 331 331 333 333 334 340 340 342 340 343 334 327 324 322 320 322 324 325
324 326 330 330 330 330 332 330 333 330 329 332 336 343 355 356 354 353 352 350 349 348 348 346 345 346 345 345 346 343 342 340 340 341 342 340 340 343 342 343 337 337 328 326 324 322 321 320 328
324 328 330 332 329 326 326 327 328 328 331 332 335 340 351 354 352 350 350 349 348 348 347 347 346 347 345 345 349 344 344 343 342 342 344 341 338 340 340 341 343 340 333 338 334 334 331 331 331
327 327 328 330 331 329 326 326 328 327 329 330 330 333 346 351 352 350 349 348 348 348 347 348 348 349 347 346 347 346 346 346 346 346 346 343 344 344 343 339 342 343 341 342 338 340 339 337 336
329 327 326 328 329 327 326 327 326 325 325 326 328 327 341 349 349 348 346 346 346 346 347 348 351 352 351 350 347 348 347 347 348 349 350 351 350 349 349 347 346 345 345 345 346 344 344 343 344
329 328 329 329 326 324 325 329 331 326 326 326 325 327 330 347 349 348 348 347 347 348 349 350 351 354 354 352 349 349 350 349 349 350 350 353 351 351 350 350 350 348 346 345 345 346 346 348 348
329 328 328 327 325 328 330 331 333 329 325 326 326 326 329 331 345 349 349 350 350 350 351 352 353 355 356 355 353 352 350 350 350 350 351 354 353 351 351 349 348 347 347 348 348 348 347 347 346
328 329 331 326 327 331 332 336 331 331 330 328 325 325 328 328 330 337 345 351 351 349 350 352 351 354 358 357 356 354 353 353 352 352 351 353 353 354 353 350 349 351 352 351 350 350 348 348 347
328 335 333 329 332 333 335 337 332 330 330 330 325 325 326 327 328 327 328 331 333 338 342 346 348 348 356 359 358 357 356 355 354 353 352 354 352 352 352 350 351 353 351 349 348 348 349 347 347
331 332 330 329 331 331 333 334 332 328 329 331 328 324 327 328 327 326 325 324 325 327 335 340 343 346 350 355 358 356 355 355 354 354 352 352 352 351 352 352 351 353 351 347 346 347 346 347 346
323 322 325 325 324 325 324 327 326 327 326 328 327 324 325 327 327 325 324 324 324 325 330 336 339 346 349 350 351 351 350 350 351 351 352 351 352 352 353 353 353 352 349 347 348 348 347 346 343
319 319 318 319 319 320 320 320 319 321 324 326 325 324 325 325 327 326 325 324 326 328 330 335 337 342 350 348 348 344 345 346 347 349 352 351 352 354 353 353 348 347 346 347 347 346 344 340 337
318 319 318 319 319 319 320 320 319 319 320 321 322 323 324 324 325 327 325 326 327 328 331 333 338 344 349 346 348 349 349 349 349 350 352 352 353 352 352 351 348 341 341 332 338 340 340 338 336
318 319 319 319 320 322 320 323 322 321 321 321 322 322 323 323 324 325 326 326 327 328 329 331 336 342 350 349 346 350 349 347 345 348 352 351 351 349 344 339 336 336 333 334 335 334 335 336 332
318 319 319 320 321 322 321 320 319 322 321 322 322 322 323 324 326 327 328 328 328 329 330 333 336 343 346 350 349 350 351 343 347 349 351 346 341 337 334 333 333 334 333 329 333 332 331 332 332
319 319 320 321 321 322 322 322 321 322 322 323 323 322 323 326 326 327 328 329 330 331 329 332 338 343 348 351 353 351 350 349 344 346 343 339 336 333 331 331 333 333 331 330 329 330 332 332 331
319 322 323 322 321 322 322 322 322 323 323 322 323 323 326 326 326 327 329 329 331 332 333 333 337 343 347 350 349 350 351 351 346 342 338 334 331 330 331 332 333 332 331 329 327 327 327 327 326
321 322 322 322 322 321 321 323 322 324 324 325 325 326 326 325 327 329 331 331 331 333 334 334 337 342 345 346 346 347 349 347 341 338 332 329 328 329 332 334 332 332 329 329 327 327 326 325 325
321 322 322 323 323 323 323 326 327 324 325 324 326 327 327 328 327 329 332 333 335 336 337 337 338 341 342 344 346 345 343 337 332 329 330 328 327 326 328 330 332 330 329 327 327 327 325 324 324
321 320 322 323 326 324 324 325 325 326 324 324 327 328 327 327 327 327 329 331 332 333 334 334 334 335 334 334 333 333 333 332 333 333 333 331 331 329 328 328 330 331 330 329 328 326 325 326 324
320 322 321 323 324 327 325 324 328 327 326 327 327 327 326 326 326 326 327 326 327 328 329 329 328 328 328 328 328 328 328 328 328 328 328 328 329 330 331 330 329 329 330 330 330 329 328 327 327
321 323 323 325 326 323 326 332 326 328 328 329 327 326 326 326 325 325 326 325 325 324 324 324 324 324 323 323 324 325 325 324 325 326 326 327 327 327 327 327 327 327 327 328 330 329 329 329 328
Wind_Speed
9 13 12 10 7 8 18 21 7 5 8 3 4 10 12 16 10 11 12 11 22 23 23 24 22 18 14 14 20 22 21 19 18 18 17 16 16 16 17 15 13 10 9 7 6 5 6 7 8
11 11 13 7 11 15 15 22 13 10 8 4 3 6 8 15 14 13 12 19 22 23 24 22 24 19 15 15 19 21 21 20 19 18 16 16 16 16 16 14 11 8 6 5 5 6 6 6 6
12 13 10 10 15 17 19 23 11 10 3 6 3 6 3 10 12 15 22 22 21 22 24 23 25 21 17 16 20 22 21 20 19 18 17 16 16 16 14 13 10 6 5 4 5 6 5 5 4
14 12 9 14 22 24 28 14 14 9 8 7 5 7 9 11 8 14 23 24 22 22 22 24 26 22 19 17 20 21 20 19 18 18 16 15 15 15 13 12 9 6 5 5 6 6 5 4 4
16 10 14 18 23 26 22 5 9 11 12 7 11 7 12 9 14 22 24 23 21 22 21 24 26 23 21 19 20 21 20 19 18 17 15 15 14 15 13 11 8 6 5 5 6 6 6 5 5
12 12 16 21 24 26 21 8 9 15 12 10 8 9 14 16 18 20 23 22 21 21 20 24 26 24 22 20 20 20 19 19 18 17 16 15 15 15 13 11 8 7 6 7 8 8 7 7 7
17 15 21 24 24 24 23 12 12 16 18 13 16 13 14 17 17 19 21 21 21 20 20 22 21 23 22 20 20 19 18 18 18 18 17 16 16 15 12 11 9 8 7 8 9 9 9 9 9
14 15 24 25 20 25 17 14 12 17 17 6 5 7 19 20 18 18 20 21 21 20 20 21 21 20 19 19 20 19 18 18 17 17 17 16 15 14 13 11 10 9 9 9 9 10 10 11 11
18 15 19 26 25 15 11 9 14 4 12 4 13 4 19 25 24 20 20 21 21 21 21 22 22 21 19 18 18 19 18 17 17 16 16 16 12 13 12 10 13 10 10 10 10 10 11 11 12
17 17 26 21 8 12 2 13 11 8 13 9 7 6 11 19 21 20 20 20 22 21 21 23 22 21 20 18 17 16 15 15 15 15 16 15 14 14 14 15 13 12 11 11 11 12 12 13 12
25 23 20 22 5 5 18 10 12 7 14 14 16 16 13 13 17 18 18 21 21 21 20 22 21 21 20 19 17 18 17 16 16 17 17 17 15 14 14 12 12 12 13 11 13 13 12 13 13
25 24 26 17 9 13 17 24 14 11 16 10 2 11 11 14 16 17 19 20 21 22 21 20 21 20 20 18 18 18 18 18 17 18 19 18 16 14 14 14 13 12 13 11 13 12 12 13 13
28 23 20 21 19 15 16 22 18 13 13 15 5 5 11 14 15 20 19 23 21 21 21 21 21 21 20 16 18 17 18 18 17 17 19 18 17 16 15 15 14 13 12 13 11 12 13 13 15
15 23 23 21 16 14 14 21 24 21 18 19 16 14 11 14 16 17 14 14 20 21 21 21 21 22 20 22 17 18 16 16 17 17 17 19 18 16 15 14 14 14 14 13 13 14 14 15 16
27 22 16 16 23 18 13 23 25 24 22 13 17 17 14 13 11 16 24 17 17 18 18 20 21 22 22 22 21 18 17 17 17 17 16 17 18 15 15 15 14 14 13 12 13 14 14 16 18
23 12 16 22 29 10 13 29 31 29 20 22 20 18 16 12 12 14 19 15 16 17 20 20 21 22 22 21 20 19 18 17 18 18 18 18 17 18 16 15 14 13 11 11 12 12 14 16 18
21 12 25 27 29 13 18 18 32 14 20 23 16 18 17 15 15 14 14 15 15 16 16 20 20 21 23 21 19 18 18 19 18 17 17 16 18 16 16 15 15 10 10 12 13 13 13 15 17
20 30 31 27 29 23 19 21 17 9 23 25 27 16 19 21 18 19 17 14 16 16 14 15 19 19 18 18 17 17 18 17 17 17 18 15 17 17 14 13 12 7 12 12 13 12 14 15 18
32 24 30 20 20 23 21 20 16 16 17 21 21 17 17 16 17 21 21 21 20 16 17 18 17 16 18 19 18 18 20 19 20 21 22 19 18 18 18 15 12 11 12 11 10 12 15 17 18
26 23 18 24 13 19 23 23 19 18 23 20 20 19 14 14 13 13 17 21 16 18 18 18 19 18 18 17 17 16 18 19 19 20 20 19 19 18 16 14 11 12 11 10 10 11 14 15 17
23 20 11 21 14 14 16 23 21 22 20 24 24 22 20 13 7 9 14 15 18 21 21 21 20 19 19 17 16 14 15 17 16 16 18 20 20 18 14 13 10 9 9 10 11 9 11 15 15
22 18 15 17 16 15 19 9 22 20 22 20 21 13 12 12 9 12 11 13 15 16 18 18 18 20 19 20 19 19 19 19 20 22 21 19 16 15 16 12 11 11 9 6 7 9 10 9 14
19 19 18 11 16 13 23 10 12 24 20 20 18 19 9 9 6 7 8 6 5 7 9 14 17 19 18 21 19 20 20 19 16 18 18 19 18 16 15 14 13 10 8 7 7 8 9 11 13
19 19 14 15 14 15 17 15 11 13 17 23 22 17 13 7 4 2 4 4 4 3 6 8 14 16 17 18 19 17 17 18 19 17 17 18 18 17 16 14 12 10 9 9 9 10 11 12 11
21 13 11 12 13 12 20 16 11 18 18 17 16 14 9 7 3 2 2 3 1 2 3 7 9 11 13 15 15 17 18 17 14 18 18 19 17 15 15 14 13 12 13 11 11 11 12 11 13
24 20 13 13 14 15 11 9 13 13 13 7 14 11 7 5 6 3 5 3 5 4 2 2 5 7 8 11 14 13 12 13 15 17 17 15 14 14 12 14 14 14 14 14 14 14 14 14 15
24 20 25 13 10 8 13 10 6 13 13 12 12 10 7 6 5 5 9 8 9 9 8 7 5 4 4 4 5 8 10 14 15 16 8 10 9 9 11 14 15 16 17 17 17 17 18 18 17
22 21 19 11 12 13 14 16 12 16 15 13 12 11 7 6 6 7 7 8 11 11 11 10 10 10 8 7 6 7 7 5 3 2 5 8 8 10 12 12 17 19 19 20 20 22 22 23 23
17 19 18 13 12 8 11 5 22 19 18 15 11 9 7 5 5 5 8 7 8 11 12 9 8 8 7 4 3 2 3 3 5 7 9 10 12 13 16 17 18 21 22 24 24 24 25 25 25
19 16 20 11 16 11 6 6 5 16 14 14 11 6 7 4 4 5 6 6 8 9 10 9 7 7 5 2 2 1 2 3 4 6 8 9 12 14 17 19 22 25 27 27 28 29 31 30 31
Wind_Direction
285 273 261 258 247 232 246 233 260 142 192 65 289 271 341 68 62 112 128 131 136 138 151 157 166 166 170 169 169 172 174 170 167 161 155 153 153 153 149 146 141 138 137 140 141 137 137 136 132
281 275 248 265 241 248 231 241 204 231 67 290 201 226 247 64 72 108 131 136 139 143 150 156 166 167 170 170 170 172 174 172 169 164 162 161 162 161 159 158 153 148 147 152 150 143 138 136 135
267 252 265 230 236 245 250 214 160 176 153 234 230 285 84 62 93 136 131 142 140 144 149 161 167 167 169 171 172 174 176 175 173 170 170 170 169 166 164 166 162 156 151 150 152 152 148 144 147
243 228 244 253 243 230 257 286 168 150 192 204 253 159 80 68 120 125 141 145 145 146 150 166 167 169 171 171 174 178 179 180 177 176 177 178 173 169 170 168 164 160 158 161 165 169 171 179 186
233 254 232 229 236 254 230 205 286 210 209 195 193 161 112 103 113 133 145 145 149 147 148 160 168 171 174 173 175 180 183 186 182 182 184 184 178 174 174 172 167 164 163 170 183 189 193 200 211
228 230 239 235 228 237 257 263 218 246 211 192 206 177 128 128 141 141 149 147 148 147 147 161 170 174 177 176 179 183 185 189 189 188 192 189 183 179 179 178 178 180 183 188 195 204 212 218 224
235 220 236 245 233 224 236 216 251 247 243 218 207 215 126 152 142 144 150 148 145 150 151 157 166 175 180 180 180 184 187 192 193 193 194 190 185 185 186 188 190 196 198 201 208 213 220 228 234
228 246 240 240 251 234 216 225 223 240 245 92 305 204 161 133 151 148 152 153 152 156 154 160 166 171 175 182 185 187 192 194 195 194 191 189 188 192 194 199 205 208 213 217 220 225 231 240 247
228 242 236 231 233 256 231 214 218 312 291 220 186 21 75 135 150 160 157 159 160 164 158 165 168 173 175 177 186 188 191 193 193 191 191 190 187 198 211 209 225 232 225 226 231 236 243 247 253
225 237 220 241 252 248 279 220 222 208 228 234 220 112 129 154 161 167 167 167 167 170 166 167 172 173 177 177 182 182 188 188 189 190 194 189 199 203 208 215 227 232 232 233 235 239 244 249 251
209 230 232 238 4 256 302 258 259 239 252 225 207 187 164 173 179 177 178 172 171 171 172 169 174 173 181 181 178 185 190 192 194 197 198 201 205 206 210 210 221 226 233 233 244 240 241 243 249
228 214 251 260 248 252 276 312 238 263 250 352 90 333 177 186 188 188 187 170 173 171 175 173 178 179 191 185 185 190 193 195 197 201 201 205 212 210 214 219 217 207 218 227 232 237 238 246 252
227 224 225 268 216 246 276 292 296 249 281 297 230 221 259 204 194 204 192 169 171 172 177 182 180 185 192 201 193 198 200 197 202 201 206 209 212 215 216 225 229 223 224 227 237 243 253 254 256
214 226 240 256 264 250 240 260 298 285 256 267 268 255 222 227 209 202 189 183 168 175 177 183 185 187 193 200 208 201 204 205 208 208 211 212 219 220 224 225 229 237 239 248 247 246 254 254 260
203 207 217 235 256 253 253 262 251 269 273 249 270 247 246 218 243 201 188 189 182 184 185 190 191 191 196 202 208 207 208 213 209 218 208 211 220 227 227 230 230 233 234 242 253 259 259 263 266
206 180 221 229 234 220 174 243 244 251 313 296 240 262 226 216 235 239 238 161 200 207 193 196 200 197 202 205 206 212 215 211 221 215 215 211 217 223 221 229 229 231 232 238 244 254 256 259 263
176 197 227 227 206 156 195 240 234 285 293 289 265 228 261 216 215 215 222 190 205 206 194 200 202 204 202 207 209 212 217 220 223 221 220 201 218 218 216 222 228 231 236 247 253 259 271 279 274
197 210 224 218 186 180 199 242 222 260 271 275 284 248 221 219 220 208 217 227 212 207 212 203 201 207 198 203 210 218 220 221 231 220 218 205 216 215 213 219 231 221 237 245 250 252 272 286 288
203 220 221 246 190 187 213 226 203 217 259 260 289 273 256 245 228 216 208 219 220 214 204 208 209 202 201 201 206 214 218 216 224 223 215 213 212 212 212 222 204 218 239 251 267 267 262 268 274
237 234 215 226 194 205 205 220 229 214 212 236 259 266 264 243 258 236 242 240 205 215 217 209 207 202 199 204 217 221 222 224 220 221 212 212 211 208 210 215 220 214 239 234 255 266 277 281 286
230 240 200 227 159 209 240 213 218 210 218 224 221 245 219 234 237 247 238 237 225 222 213 212 207 196 195 202 202 208 216 227 205 213 195 206 210 212 198 204 209 210 216 246 225 248 264 280 288
214 220 216 207 182 209 207 230 190 200 205 208 254 226 225 231 218 245 195 212 216 219 215 216 205 200 198 202 202 203 208 207 209 209 189 198 198 193 191 186 198 207 223 242 240 259 264 279 284
224 197 224 223 222 251 186 220 236 188 202 205 212 238 218 208 216 182 191 170 200 192 208 199 198 197 202 202 216 203 224 214 206 206 178 182 189 188 187 193 197 202 216 234 242 261 259 266 275
218 210 192 227 228 226 223 209 193 185 203 186 194 214 198 158 196 156 144 186 173 199 217 202 194 201 206 208 211 217 215 238 198 196 176 188 190 192 195 194 196 203 218 229 239 245 248 256 271
205 187 195 202 217 228 204 226 226 189 174 187 191 164 138 170 172 215 76 339 53 189 227 208 201 208 212 212 218 222 226 224 195 185 193 192 192 193 196 198 202 209 216 224 232 237 247 252 257
203 195 214 188 206 213 220 212 215 145 109 67 118 126 154 203 91 83 56 32 55 60 61 189 180 211 210 218 220 215 212 201 205 198 202 199 204 205 195 198 214 218 219 223 228 235 241 247 246
192 216 232 279 289 238 161 107 84 116 143 162 146 137 143 129 125 109 99 84 71 74 80 91 100 119 155 179 192 192 185 202 206 188 220 211 230 236 209 210 221 228 231 231 231 238 243 244 248
204 202 218 236 256 221 162 167 182 169 165 164 143 146 144 133 121 111 94 94 102 96 86 81 100 108 106 118 140 166 184 213 232 218 231 254 266 248 257 238 228 234 240 240 238 244 247 242 246
201 206 220 223 220 218 239 161 135 166 167 160 160 147 149 133 113 111 105 102 91 82 87 91 110 116 109 122 141 186 235 247 258 262 263 266 267 263 260 258 256 250 244 245 246 247 253 260 249
206 214 201 220 215 241 254 84 20 129 146 137 148 146 117 105 107 98 95 84 81 76 90 82 74 85 87 80 84 48 341 315 298 289 286 283 278 274 270 268 265 263 261 257 246 246 250 248 251